Location: Dompnac
(44.5644°N, 4.1026°E)
Time: 11:08:28
(UTC+00:00)

ATLAS 3B R/B - Pass Details

Date: 19 September 2020
Orbit: 1016 x 1179 km, 63.8° (Epoch: 28 October)

Event Time Altitude Azimuth Distance (km) Brightness Sun altitude
Rises 22:25:38 0° 318° (NW) 3,854 6.4 -41.7°
Reaches altitude 10° 22:28:24 10° 311° (NW) 2,918 5.5 -41.9°
Enters shadow 22:31:24 25° 294° (WNW) 2,036 4.4 -42.1°
